| time (UTC) | temp F | wind direction | speed MPH | gust MPH | rain 1hr in | rain 24hr in | rain mn in | humidity % | barometer mb |
| 20260510060029 | 57 | 185 | 0.0 | 0.0 | 0.00 | 0.00 | 0.00 | 74 | 1020.6 |
| 20260510055526 | 57 | 181 | 0.0 | 0.0 | 0.00 | 0.00 | 0.00 | 74 | 1020.6 |
| 20260510055024 | 57 | 171 | 0.0 | 0.0 | 0.00 | 0.00 | 0.00 | 73 | 1020.6 |
| 20260510054520 | 58 | 176 | 0.0 | 0.0 | 0.00 | 0.00 | 0.00 | 73 | 1020.5 |
| 20260510054015 | 58 | 178 | 0.0 | 0.0 | 0.00 | 0.00 | 0.00 | 73 | 1020.4 |
| 20260510053510 | 57 | 184 | 0.0 | 0.0 | 0.00 | 0.00 | 0.00 | 71 | 1020.5 |
| 20260510053007 | 58 | 182 | 0.0 | 0.0 | 0.00 | 0.00 | 0.00 | 71 | 1020.4 |
| 20260510052503 | 59 | 159 | 0.0 | 0.0 | 0.00 | 0.00 | 0.00 | 70 | 1020.5 |
| 20260510051959 | 58 | 176 | 0.0 | 0.0 | 0.00 | 0.00 | 0.00 | 70 | 1020.4 |
| 20260510051454 | 58 | 186 | 0.0 | 0.0 | 0.00 | 0.00 | 0.00 | 70 | 1020.4 |
| 20260510050951 | 59 | 187 | 0.0 | 0.0 | 0.00 | 0.00 | 0.00 | 69 | 1020.5 |
| 20260510050449 | 59 | 187 | 0.0 | 0.0 | 0.00 | 0.00 | 0.00 | 69 | 1020.5 |
| 20260510045945 | 59 | 181 | 0.0 | 0.0 | 0.00 | 0.00 | 0.00 | 68 | 1020.6 |
| 20260510045443 | 59 | 215 | 0.0 | 0.0 | 0.00 | 0.00 | 0.00 | 67 | 1020.5 |
| 20260510044939 | 59 | 200 | 0.0 | 0.0 | 0.00 | 0.00 | 0.00 | 67 | 1020.6 |
| 20260510044436 | 60 | 193 | 0.0 | 0.0 | 0.00 | 0.00 | 0.00 | 67 | 1020.7 |
| 20260510043933 | 60 | 193 | 0.0 | 0.0 | 0.00 | 0.00 | 0.00 | 67 | 1020.5 |
| 20260510043428 | 60 | 193 | 0.0 | 0.0 | 0.00 | 0.00 | 0.00 | 67 | 1020.4 |
| 20260510042927 | 60 | 195 | 0.0 | 0.0 | 0.00 | 0.00 | 0.00 | 65 | 1020.5 |
| 20260510042423 | 61 | 194 | 0.0 | 0.0 | 0.00 | 0.00 | 0.00 | 65 | 1020.4 |
| 20260510041918 | 61 | 141 | 0.0 | 0.0 | 0.00 | 0.00 | 0.00 | 64 | 1020.5 |
| 20260510041416 | 62 | 207 | 0.0 | 0.0 | 0.00 | 0.00 | 0.00 | 61 | 1020.5 |
| 20260510040914 | 62 | 207 | 0.0 | 0.0 | 0.00 | 0.00 | 0.00 | 60 | 1020.3 |
| 20260510040410 | 63 | 258 | 0.0 | 0.0 | 0.00 | 0.00 | 0.00 | 59 | 1020.3 |
| 20260510035906 | 63 | 252 | 0.0 | 0.0 | 0.00 | 0.00 | 0.00 | 59 | 1020.4 |
| 20260510035402 | 63 | 231 | 0.0 | 0.0 | 0.00 | 0.00 | 0.00 | 59 | 1020.4 |
| 20260510034857 | 63 | 263 | 0.0 | 0.0 | 0.00 | 0.00 | 0.00 | 60 | 1020.3 |
| 20260510034356 | 63 | 204 | 0.0 | 0.0 | 0.00 | 0.00 | 0.00 | 60 | 1020.2 |
| 20260510033852 | 63 | 203 | 0.0 | 0.0 | 0.00 | 0.00 | 0.00 | 59 | 1020.2 |
| 20260510033348 | 64 | 195 | 0.0 | 0.0 | 0.00 | 0.00 | 0.00 | 58 | 1020.0 |
| 20260510032844 | 64 | 195 | 0.0 | 0.0 | 0.00 | 0.00 | 0.00 | 58 | 1020.3 |
| 20260510032342 | 64 | 190 | 0.0 | 0.0 | 0.00 | 0.00 | 0.00 | 57 | 1020.4 |
| 20260510031837 | 64 | 205 | 0.0 | 0.0 | 0.00 | 0.00 | 0.00 | 57 | 1020.3 |
| 20260510031333 | 64 | 205 | 0.0 | 0.0 | 0.00 | 0.00 | 0.00 | 56 | 1020.5 |
| 20260510030832 | 65 | 206 | 0.0 | 0.0 | 0.00 | 0.00 | 0.00 | 56 | 1020.6 |
| 20260510030329 | 65 | 190 | 0.0 | 0.0 | 0.00 | 0.00 | 0.00 | 55 | 1020.5 |
| 20260510025826 | 65 | 215 | 0.0 | 0.0 | 0.00 | 0.00 | 0.00 | 54 | 1020.5 |
| 20260510025324 | 66 | 215 | 0.0 | 0.0 | 0.00 | 0.00 | 0.00 | 53 | 1020.5 |
| 20260510024821 | 66 | 234 | 0.0 | 0.0 | 0.00 | 0.00 | 0.00 | 52 | 1020.6 |
| 20260510024318 | 66 | 246 | 0.0 | 0.0 | 0.00 | 0.00 | 0.00 | 51 | 1020.5 |
| 20260510023814 | 67 | 243 | 0.0 | 0.0 | 0.00 | 0.00 | 0.00 | 51 | 1020.7 |
| 20260510023310 | 67 | 232 | 0.0 | 0.0 | 0.00 | 0.00 | 0.00 | 50 | 1020.7 |
| 20260510022807 | 67 | 232 | 0.0 | 0.0 | 0.00 | 0.00 | 0.00 | 50 | 1020.9 |
| 20260510022307 | 67 | 284 | 0.0 | 0.0 | 0.00 | 0.00 | 0.00 | 50 | 1020.8 |
| 20260510021806 | 67 | 278 | 0.0 | 0.0 | 0.00 | 0.00 | 0.00 | 49 | 1020.6 |
| 20260510021304 | 68 | 291 | 0.0 | 0.0 | 0.00 | 0.00 | 0.00 | 49 | 1020.9 |
| 20260510020759 | 68 | 241 | 0.0 | 0.0 | 0.00 | 0.00 | 0.00 | 49 | 1020.8 |
| 20260510020254 | 68 | 244 | 0.0 | 0.0 | 0.00 | 0.00 | 0.00 | 49 | 1020.7 |
| 20260510015750 | 68 | 251 | 0.0 | 5.0 | 0.00 | 0.00 | 0.00 | 48 | 1020.8 |
| 20260510015247 | 69 | 268 | 0.0 | 0.0 | 0.00 | 0.00 | 0.00 | 47 | 1020.9 |
| 20260510014742 | 69 | 291 | 0.0 | 0.0 | 0.00 | 0.00 | 0.00 | 47 | 1021.2 |
| 20260510014239 | 69 | 283 | 0.0 | 5.0 | 0.00 | 0.00 | 0.00 | 46 | 1021.5 |
| 20260510013735 | 69 | 223 | 0.0 | 0.0 | 0.00 | 0.00 | 0.00 | 46 | 1021.3 |
| 20260510013231 | 69 | 243 | 0.0 | 0.0 | 0.00 | 0.00 | 0.00 | 46 | 1021.3 |
| 20260510012725 | 69 | 241 | 0.0 | 5.0 | 0.00 | 0.00 | 0.00 | 46 | 1021.5 |
| 20260510012221 | 69 | 272 | 1.0 | 7.0 | 0.00 | 0.00 | 0.00 | 45 | 1021.5 |
| 20260510011720 | 69 | 242 | 0.0 | 7.0 | 0.00 | 0.00 | 0.00 | 45 | 1021.6 |
| 20260510011216 | 70 | 304 | 2.0 | 5.0 | 0.00 | 0.00 | 0.00 | 44 | 1021.4 |
| 20260510010713 | 71 | 245 | 0.0 | 0.0 | 0.00 | 0.00 | 0.00 | 44 | 1021.7 |
| 20260510010210 | 70 | 219 | 0.0 | 5.0 | 0.00 | 0.00 | 0.00 | 44 | 1021.6 |
| 20260510005707 | 71 | 216 | 0.0 | 0.0 | 0.00 | 0.00 | 0.00 | 44 | 1021.4 |
| 20260510005203 | 70 | 243 | 0.0 | 0.0 | 0.00 | 0.00 | 0.00 | 45 | 1021.4 |
| 20260510004701 | 70 | 251 | 0.0 | 0.0 | 0.00 | 0.00 | 0.00 | 44 | 1021.7 |
| 20260510004159 | 70 | 305 | 0.0 | 0.0 | 0.00 | 0.00 | 0.00 | 44 | 1021.8 |
| 20260510003656 | 70 | 273 | 0.0 | 0.0 | 0.00 | 0.00 | 0.00 | 44 | 1021.8 |
| 20260510003152 | 70 | 281 | 3.0 | 5.0 | 0.00 | 0.00 | 0.00 | 44 | 1022.0 |
| 20260510002652 | 69 | 238 | 0.0 | 5.0 | 0.00 | 0.00 | 0.00 | 45 | 1021.7 |
| 20260510002149 | 70 | 265 | 0.0 | 0.0 | 0.00 | 0.00 | 0.00 | 44 | 1022.0 |
| 20260510001646 | 71 | 316 | 3.0 | 7.0 | 0.00 | 0.00 | 0.00 | 43 | 1022.0 |
| 20260510001144 | 71 | 216 | 0.0 | 0.0 | 0.00 | 0.00 | 0.00 | 43 | 1022.1 |
| 20260510000639 | 70 | 299 | 3.0 | 10.0 | 0.00 | 0.00 | 0.00 | 44 | 1022.0 |
| 20260510000137 | 71 | 257 | 0.0 | 0.0 | 0.00 | 0.00 | 0.00 | 43 | 1022.2 |
| 20260509235633 | 72 | 265 | 2.0 | 5.0 | 0.00 | 0.00 | 0.00 | 43 | 1022.1 |
| 20260509235130 | 72 | 217 | 0.0 | 0.0 | 0.00 | 0.00 | 0.00 | 44 | 1022.2 |
| 20260509234625 | 72 | 226 | 0.0 | 0.0 | 0.00 | 0.00 | 0.00 | 43 | 1022.3 |
| 20260509234123 | 72 | 214 | 0.0 | 0.0 | 0.00 | 0.00 | 0.00 | 44 | 1022.4 |
| 20260509233621 | 71 | 300 | 4.0 | 7.0 | 0.00 | 0.00 | 0.00 | 44 | 1022.4 |
| 20260509233118 | 71 | 292 | 1.0 | 5.0 | 0.00 | 0.00 | 0.00 | 44 | 1022.6 |
| 20260509232614 | 71 | 293 | 0.0 | 3.0 | 0.00 | 0.00 | 0.00 | 43 | 1022.5 |
| 20260509232111 | 72 | 286 | 0.0 | 0.0 | 0.00 | 0.00 | 0.00 | 44 | 1022.5 |
| 20260509231608 | 71 | 253 | 0.0 | 7.0 | 0.00 | 0.00 | 0.00 | 45 | 1022.5 |
| 20260509231105 | 71 | 221 | 0.0 | 7.0 | 0.00 | 0.00 | 0.00 | 45 | 1022.7 |
| 20260509230602 | 69 | 280 | 0.0 | 7.0 | 0.00 | 0.00 | 0.00 | 46 | 1022.6 |
| 20260509230059 | 70 | 296 | 0.0 | 10.0 | 0.00 | 0.00 | 0.00 | 46 | 1022.9 |
| 20260509225555 | 71 | 299 | 0.0 | 5.0 | 0.00 | 0.00 | 0.00 | 45 | 1023.1 |
| 20260509225050 | 71 | 254 | 0.0 | 0.0 | 0.00 | 0.00 | 0.00 | 45 | 1022.9 |
| 20260509224546 | 69 | 290 | 2.0 | 7.0 | 0.00 | 0.00 | 0.00 | 46 | 1023.3 |
| 20260509224043 | 70 | 318 | 3.0 | 10.0 | 0.00 | 0.00 | 0.00 | 45 | 1023.2 |
| 20260509223540 | 70 | 271 | 0.0 | 3.0 | 0.00 | 0.00 | 0.00 | 47 | 1023.3 |
| 20260509223038 | 71 | 293 | 4.0 | 7.0 | 0.00 | 0.00 | 0.00 | 45 | 1023.2 |
| 20260509222533 | 70 | 244 | 0.0 | 5.0 | 0.00 | 0.00 | 0.00 | 48 | 1023.2 |
| 20260509222035 | 69 | 185 | 0.0 | 5.0 | 0.00 | 0.00 | 0.00 | 49 | 1023.3 |
| 20260509221525 | 69 | 269 | 0.0 | 5.0 | 0.00 | 0.00 | 0.00 | 49 | 1023.4 |
| 20260509221022 | 69 | 290 | 4.0 | 7.0 | 0.00 | 0.00 | 0.00 | 50 | 1023.5 |
| 20260509220518 | 68 | 272 | 3.0 | 12.0 | 0.00 | 0.00 | 0.00 | 51 | 1023.4 |
| 20260509220014 | 69 | 283 | 0.0 | 3.0 | 0.00 | 0.00 | 0.00 | 50 | 1023.2 |
| 20260509215509 | 69 | 276 | 0.0 | 7.0 | 0.00 | 0.00 | 0.00 | 49 | 1023.5 |
| 20260509215007 | 71 | 253 | 0.0 | 5.0 | 0.00 | 0.00 | 0.00 | 48 | 1023.2 |
| 20260509214504 | 71 | 230 | 0.0 | 0.0 | 0.00 | 0.00 | 0.00 | 48 | 1023.3 |
| 20260509214001 | 70 | 251 | 0.0 | 0.0 | 0.00 | 0.00 | 0.00 | 50 | 1023.5 |
| 20260509213457 | 69 | 236 | 0.0 | 5.0 | 0.00 | 0.00 | 0.00 | 51 | 1023.4 |
| 20260509212954 | 69 | 224 | 0.0 | 5.0 | 0.00 | 0.00 | 0.00 | 52 | 1023.5 |
| 20260509212451 | 69 | 286 | 0.0 | 5.0 | 0.00 | 0.00 | 0.00 | 51 | 1023.7 |
| 20260509211948 | 69 | 291 | 0.0 | 5.0 | 0.00 | 0.00 | 0.00 | 52 | 1023.5 |
| 20260509211443 | 68 | 317 | 3.0 | 7.0 | 0.00 | 0.00 | 0.00 | 52 | 1023.6 |
| 20260509210940 | 69 | 300 | 6.0 | 7.0 | 0.00 | 0.00 | 0.00 | 52 | 1023.8 |
| 20260509210437 | 68 | 283 | 0.0 | 7.0 | 0.00 | 0.00 | 0.00 | 53 | 1023.8 |
| 20260509205932 | 68 | 295 | 3.0 | 5.0 | 0.00 | 0.00 | 0.00 | 52 | 1023.9 |
| 20260509205427 | 68 | 315 | 0.0 | 5.0 | 0.00 | 0.00 | 0.00 | 53 | 1023.9 |
| 20260509204923 | 68 | 278 | 3.0 | 10.0 | 0.00 | 0.00 | 0.00 | 53 | 1023.8 |
| 20260509204420 | 70 | 276 | 0.0 | 0.0 | 0.00 | 0.00 | 0.00 | 50 | 1023.8 |
| 20260509203917 | 69 | 275 | 0.0 | 3.0 | 0.00 | 0.00 | 0.00 | 54 | 1023.8 |
| 20260509203412 | 68 | 305 | 1.0 | 5.0 | 0.00 | 0.00 | 0.00 | 54 | 1023.8 |
| 20260509202910 | 70 | 271 | 0.0 | 0.0 | 0.00 | 0.00 | 0.00 | 51 | 1024.0 |
| 20260509202406 | 68 | 291 | 0.0 | 5.0 | 0.00 | 0.00 | 0.00 | 54 | 1024.0 |
| 20260509201901 | 67 | 230 | 0.0 | 10.0 | 0.00 | 0.00 | 0.00 | 55 | 1024.2 |
| 20260509201356 | 68 | 312 | 0.0 | 3.0 | 0.00 | 0.00 | 0.00 | 54 | 1024.2 |
| 20260509200854 | 68 | 196 | 0.0 | 5.0 | 0.00 | 0.00 | 0.00 | 53 | 1024.3 |
| 20260509200348 | 70 | 200 | 0.0 | 0.0 | 0.00 | 0.00 | 0.00 | 52 | 1024.4 |
| 20260509195846 | 68 | 251 | 0.0 | 3.0 | 0.00 | 0.00 | 0.00 | 54 | 1024.4 |
| 20260509195345 | 69 | 282 | 3.0 | 5.0 | 0.00 | 0.00 | 0.00 | 51 | 1024.4 |
| 20260509194845 | 69 | 160 | 0.0 | 0.0 | 0.00 | 0.00 | 0.00 | 52 | 1024.6 |
| 20260509194342 | 69 | 241 | 0.0 | 0.0 | 0.00 | 0.00 | 0.00 | 52 | 1024.9 |
| 20260509193838 | 71 | 206 | 0.0 | 0.0 | 0.00 | 0.00 | 0.00 | 51 | 1024.8 |
| 20260509193338 | 70 | 283 | 0.0 | 0.0 | 0.00 | 0.00 | 0.00 | 53 | 1024.8 |
| 20260509192835 | 67 | 256 | 0.0 | 7.0 | 0.00 | 0.00 | 0.00 | 55 | 1024.7 |
| 20260509192331 | 68 | 307 | 4.0 | 5.0 | 0.00 | 0.00 | 0.00 | 55 | 1024.9 |
| 20260509191826 | 68 | 263 | 1.0 | 5.0 | 0.00 | 0.00 | 0.00 | 54 | 1024.9 |
| 20260509191322 | 67 | 261 | 0.0 | 7.0 | 0.00 | 0.00 | 0.00 | 56 | 1024.9 |
| 20260509190818 | 67 | 282 | 3.0 | 7.0 | 0.00 | 0.00 | 0.00 | 55 | 1025.0 |
| 20260509190315 | 67 | 89 | 0.0 | 3.0 | 0.00 | 0.00 | 0.00 | 54 | 1025.1 |
| 20260509185813 | 68 | 268 | 2.0 | 3.0 | 0.00 | 0.00 | 0.00 | 53 | 1025.1 |
| 20260509185309 | 66 | 176 | 0.0 | 5.0 | 0.00 | 0.00 | 0.00 | 58 | 1025.1 |
| 20260509184806 | 66 | 263 | 1.0 | 5.0 | 0.00 | 0.00 | 0.00 | 57 | 1025.3 |
| 20260509184304 | 66 | 291 | 4.0 | 7.0 | 0.00 | 0.00 | 0.00 | 57 | 1025.2 |
| 20260509183800 | 66 | 255 | 0.0 | 5.0 | 0.00 | 0.00 | 0.00 | 58 | 1025.2 |
| 20260509183255 | 69 | 266 | 0.0 | 0.0 | 0.00 | 0.00 | 0.00 | 54 | 1025.4 |
| 20260509182751 | 66 | 237 | 0.0 | 0.0 | 0.00 | 0.00 | 0.00 | 59 | 1025.2 |
| 20260509182248 | 64 | 290 | 6.0 | 10.0 | 0.00 | 0.00 | 0.00 | 60 | 1025.5 |
| 20260509181746 | 64 | 278 | 0.0 | 7.0 | 0.00 | 0.00 | 0.00 | 61 | 1025.2 |
| 20260509181243 | 65 | 284 | 3.0 | 10.0 | 0.00 | 0.00 | 0.00 | 59 | 1025.4 |
| 20260509180740 | 68 | 239 | 0.0 | 0.0 | 0.00 | 0.00 | 0.00 | 52 | 1025.3 |
| 20260509180236 | 66 | 232 | 0.0 | 3.0 | 0.00 | 0.00 | 0.00 | 57 | 1025.3 |
| 20260509175733 | 65 | 230 | 0.0 | 0.0 | 0.00 | 0.00 | 0.00 | 57 | 1025.3 |
| 20260509175229 | 64 | 234 | 0.0 | 5.0 | 0.00 | 0.00 | 0.00 | 60 | 1025.2 |
| 20260509174725 | 64 | 300 | 7.0 | 10.0 | 0.00 | 0.00 | 0.00 | 59 | 1025.4 |
| 20260509174220 | 64 | 300 | 0.0 | 5.0 | 0.00 | 0.00 | 0.00 | 57 | 1025.4 |
| 20260509173717 | 65 | 272 | 3.0 | 5.0 | 0.00 | 0.00 | 0.00 | 56 | 1025.5 |
| 20260509173213 | 64 | 269 | 0.0 | 0.0 | 0.00 | 0.00 | 0.00 | 59 | 1025.8 |
| 20260509172709 | 65 | 268 | 0.0 | 0.0 | 0.00 | 0.00 | 0.00 | 59 | 1025.5 |
| 20260509172205 | 64 | 289 | 3.0 | 5.0 | 0.00 | 0.00 | 0.00 | 58 | 1025.6 |
| 20260509171701 | 62 | 286 | 2.0 | 7.0 | 0.00 | 0.00 | 0.00 | 60 | 1025.7 |
| 20260509171157 | 64 | 224 | 0.0 | 0.0 | 0.00 | 0.00 | 0.00 | 59 | 1025.7 |
| 20260509170654 | 62 | 274 | 1.0 | 5.0 | 0.00 | 0.00 | 0.00 | 62 | 1025.6 |
| 20260509170151 | 62 | 284 | 3.0 | 5.0 | 0.00 | 0.00 | 0.00 | 61 | 1025.6 |
| 20260509165649 | 64 | 255 | 0.0 | 0.0 | 0.00 | 0.00 | 0.00 | 61 | 1025.8 |
| 20260509165144 | 62 | 234 | 0.0 | 0.0 | 0.00 | 0.00 | 0.00 | 64 | 1025.9 |
| 20260509164641 | 61 | 279 | 5.0 | 7.0 | 0.00 | 0.00 | 0.00 | 65 | 1026.0 |
| 20260509164136 | 61 | 243 | 0.0 | 0.0 | 0.00 | 0.00 | 0.00 | 65 | 1026.0 |
| 20260509163634 | 61 | 264 | 2.0 | 5.0 | 0.00 | 0.00 | 0.00 | 65 | 1026.1 |
| 20260509163129 | 62 | 260 | 0.0 | 0.0 | 0.00 | 0.00 | 0.00 | 65 | 1026.1 |
| 20260509162627 | 62 | 261 | 0.0 | 0.0 | 0.00 | 0.00 | 0.00 | 63 | 1025.9 |
| 20260509162123 | 63 | 216 | 0.0 | 0.0 | 0.00 | 0.00 | 0.00 | 62 | 1026.0 |
| 20260509161619 | 63 | 258 | 0.0 | 0.0 | 0.00 | 0.00 | 0.00 | 64 | 1026.2 |
| 20260509161115 | 60 | 163 | 0.0 | 0.0 | 0.00 | 0.00 | 0.00 | 69 | 1025.9 |
| 20260509160611 | 59 | 268 | 0.0 | 0.0 | 0.00 | 0.00 | 0.00 | 69 | 1026.2 |
| 20260509160106 | 60 | 249 | 0.0 | 0.0 | 0.00 | 0.00 | 0.00 | 70 | 1026.3 |
| 20260509155603 | 58 | 265 | 0.0 | 0.0 | 0.00 | 0.00 | 0.00 | 71 | 1026.5 |
| 20260509155059 | 58 | 288 | 0.0 | 0.0 | 0.00 | 0.00 | 0.00 | 72 | 1026.5 |
| 20260509154555 | 57 | 265 | 0.0 | 0.0 | 0.00 | 0.00 | 0.00 | 74 | 1026.6 |
| 20260509154052 | 56 | 239 | 0.0 | 0.0 | 0.00 | 0.00 | 0.00 | 75 | 1026.5 |
| 20260509153549 | 57 | 267 | 0.0 | 0.0 | 0.00 | 0.00 | 0.00 | 75 | 1026.7 |
| 20260509153046 | 56 | 268 | 0.0 | 0.0 | 0.00 | 0.00 | 0.00 | 74 | 1026.7 |
| 20260509152542 | 57 | 198 | 0.0 | 0.0 | 0.00 | 0.00 | 0.00 | 74 | 1026.5 |
| 20260509152040 | 57 | 94 | 0.0 | 0.0 | 0.00 | 0.00 | 0.00 | 74 | 1026.5 |
| 20260509151535 | 57 | 189 | 0.0 | 0.0 | 0.00 | 0.00 | 0.00 | 75 | 1026.7 |
| 20260509151033 | 57 | 192 | 0.0 | 0.0 | 0.00 | 0.00 | 0.00 | 75 | 1026.8 |
| 20260509150531 | 56 | 156 | 0.0 | 0.0 | 0.00 | 0.00 | 0.00 | 76 | 1027.0 |
| 20260509150029 | 56 | 169 | 0.0 | 0.0 | 0.00 | 0.00 | 0.00 | 76 | 1026.9 |
| 20260509145524 | 56 | 130 | 0.0 | 0.0 | 0.00 | 0.00 | 0.00 | 74 | 1026.9 |
| 20260509145019 | 57 | 152 | 0.0 | 0.0 | 0.00 | 0.00 | 0.00 | 73 | 1027.1 |
| 20260509144517 | 55 | 178 | 0.0 | 0.0 | 0.00 | 0.00 | 0.00 | 78 | 1027.0 |
| 20260509144014 | 53 | 153 | 0.0 | 0.0 | 0.00 | 0.00 | 0.00 | 80 | 1027.1 |
| 20260509143511 | 52 | 130 | 0.0 | 0.0 | 0.00 | 0.00 | 0.00 | 81 | 1027.1 |
| 20260509143009 | 52 | 135 | 0.0 | 0.0 | 0.00 | 0.00 | 0.00 | 82 | 1027.1 |
| 20260509142504 | 52 | 120 | 0.0 | 0.0 | 0.00 | 0.00 | 0.00 | 82 | 1027.1 |
| 20260509141959 | 51 | 126 | 0.0 | 0.0 | 0.00 | 0.00 | 0.00 | 82 | 1027.1 |
| 20260509141456 | 51 | 127 | 0.0 | 0.0 | 0.00 | 0.00 | 0.00 | 82 | 1027.0 |
| 20260509140953 | 51 | 197 | 0.0 | 0.0 | 0.00 | 0.00 | 0.00 | 85 | 1027.2 |
| 20260509140449 | 50 | 142 | 0.0 | 0.0 | 0.00 | 0.00 | 0.00 | 86 | 1027.2 |
| 20260509135948 | 49 | 163 | 0.0 | 0.0 | 0.00 | 0.00 | 0.00 | 88 | 1027.0 |
| 20260509135445 | 49 | 146 | 0.0 | 0.0 | 0.00 | 0.00 | 0.00 | 91 | 1027.1 |
| 20260509134942 | 48 | 155 | 0.0 | 0.0 | 0.00 | 0.00 | 0.00 | 92 | 1027.2 |
| 20260509134440 | 48 | 144 | 0.0 | 0.0 | 0.00 | 0.00 | 0.00 | 92 | 1027.1 |
| 20260509133937 | 48 | 150 | 0.0 | 0.0 | 0.00 | 0.00 | 0.00 | 92 | 1027.3 |
| 20260509133433 | 48 | 120 | 0.0 | 0.0 | 0.00 | 0.00 | 0.00 | 92 | 1027.2 |
| 20260509132932 | 48 | 140 | 0.0 | 0.0 | 0.00 | 0.00 | 0.00 | 93 | 1027.4 |
| 20260509132429 | 48 | 143 | 0.0 | 0.0 | 0.00 | 0.00 | 0.00 | 93 | 1027.2 |
| 20260509131926 | 48 | 160 | 0.0 | 0.0 | 0.00 | 0.00 | 0.00 | 93 | 1027.2 |
| 20260509131423 | 48 | 130 | 0.0 | 0.0 | 0.00 | 0.00 | 0.00 | 93 | 1027.1 |
| 20260509130920 | 47 | 180 | 0.0 | 0.0 | 0.00 | 0.00 | 0.00 | 92 | 1027.0 |
| 20260509130415 | 47 | 192 | 0.0 | 0.0 | 0.00 | 0.00 | 0.00 | 92 | 1027.0 |
| 20260509125913 | 47 | 169 | 0.0 | 0.0 | 0.00 | 0.00 | 0.00 | 91 | 1026.9 |
| 20260509125409 | 47 | 194 | 0.0 | 0.0 | 0.00 | 0.00 | 0.00 | 90 | 1027.0 |
| 20260509124905 | 47 | 174 | 0.0 | 0.0 | 0.00 | 0.00 | 0.00 | 90 | 1026.8 |
| 20260509124402 | 47 | 170 | 0.0 | 0.0 | 0.00 | 0.00 | 0.00 | 90 | 1026.9 |
| 20260509123900 | 47 | 170 | 0.0 | 0.0 | 0.00 | 0.00 | 0.00 | 90 | 1027.0 |
| 20260509123357 | 48 | 167 | 0.0 | 0.0 | 0.00 | 0.00 | 0.00 | 90 | 1027.0 |
| 20260509122853 | 48 | 172 | 0.0 | 0.0 | 0.00 | 0.00 | 0.00 | 89 | 1027.0 |
| 20260509122350 | 48 | 172 | 0.0 | 0.0 | 0.00 | 0.00 | 0.00 | 89 | 1026.8 |
| 20260509121847 | 48 | 162 | 0.0 | 0.0 | 0.00 | 0.00 | 0.00 | 89 | 1026.9 |
| 20260509121343 | 48 | 176 | 0.0 | 0.0 | 0.00 | 0.00 | 0.00 | 89 | 1027.0 |
| 20260509120842 | 48 | 176 | 0.0 | 0.0 | 0.00 | 0.00 | 0.00 | 89 | 1027.1 |
| 20260509120339 | 48 | 175 | 0.0 | 0.0 | 0.00 | 0.00 | 0.00 | 89 | 1026.9 |
| 20260509115837 | 48 | 183 | 0.0 | 0.0 | 0.00 | 0.00 | 0.00 | 88 | 1027.0 |
| 20260509115334 | 48 | 185 | 0.0 | 0.0 | 0.00 | 0.00 | 0.00 | 88 | 1026.9 |
| 20260509114832 | 48 | 185 | 0.0 | 0.0 | 0.00 | 0.00 | 0.00 | 87 | 1027.0 |
| 20260509114330 | 48 | 191 | 0.0 | 0.0 | 0.00 | 0.00 | 0.00 | 87 | 1026.8 |
| 20260509113829 | 48 | 191 | 0.0 | 0.0 | 0.00 | 0.00 | 0.00 | 86 | 1026.9 |
| 20260509113326 | 48 | 191 | 0.0 | 0.0 | 0.00 | 0.00 | 0.00 | 86 | 1027.1 |
| 20260509112823 | 48 | 191 | 0.0 | 0.0 | 0.00 | 0.00 | 0.00 | 85 | 1027.1 |
| 20260509112320 | 49 | 192 | 0.0 | 0.0 | 0.00 | 0.00 | 0.00 | 85 | 1026.8 |
| 20260509111817 | 49 | 179 | 0.0 | 0.0 | 0.00 | 0.00 | 0.00 | 84 | 1026.9 |
| 20260509111314 | 49 | 179 | 0.0 | 0.0 | 0.00 | 0.00 | 0.00 | 84 | 1027.0 |
| 20260509110811 | 49 | 179 | 0.0 | 0.0 | 0.00 | 0.00 | 0.00 | 84 | 1026.8 |
| 20260509110307 | 49 | 179 | 0.0 | 0.0 | 0.00 | 0.00 | 0.00 | 84 | 1027.1 |
| 20260509105806 | 50 | 178 | 0.0 | 0.0 | 0.00 | 0.00 | 0.00 | 83 | 1027.0 |
| 20260509105306 | 50 | 178 | 0.0 | 0.0 | 0.00 | 0.00 | 0.00 | 83 | 1027.2 |
| 20260509104800 | 50 | 178 | 0.0 | 0.0 | 0.00 | 0.00 | 0.00 | 82 | 1027.0 |
| 20260509104256 | 50 | 179 | 0.0 | 0.0 | 0.00 | 0.00 | 0.00 | 82 | 1027.3 |
| 20260509103755 | 51 | 178 | 0.0 | 0.0 | 0.00 | 0.00 | 0.00 | 81 | 1027.1 |
| 20260509103252 | 51 | 178 | 0.0 | 0.0 | 0.00 | 0.00 | 0.00 | 81 | 1027.3 |
| 20260509102750 | 51 | 178 | 0.0 | 0.0 | 0.00 | 0.00 | 0.00 | 80 | 1027.3 |
| 20260509102247 | 51 | 182 | 0.0 | 0.0 | 0.00 | 0.00 | 0.00 | 80 | 1027.4 |
| 20260509101743 | 52 | 176 | 0.0 | 0.0 | 0.00 | 0.00 | 0.00 | 79 | 1027.4 |
| 20260509101239 | 52 | 176 | 0.0 | 0.0 | 0.00 | 0.00 | 0.00 | 79 | 1027.1 |
| 20260509100737 | 52 | 176 | 0.0 | 0.0 | 0.00 | 0.00 | 0.00 | 78 | 1027.3 |
| 20260509100234 | 53 | 176 | 0.0 | 0.0 | 0.00 | 0.00 | 0.00 | 78 | 1027.2 |
| 20260509095730 | 53 | 176 | 0.0 | 0.0 | 0.00 | 0.00 | 0.00 | 78 | 1027.4 |
| 20260509095228 | 53 | 171 | 0.0 | 0.0 | 0.00 | 0.00 | 0.00 | 78 | 1027.3 |
| 20260509094725 | 53 | 156 | 0.0 | 0.0 | 0.00 | 0.00 | 0.00 | 78 | 1027.3 |
| 20260509094222 | 53 | 177 | 0.0 | 0.0 | 0.00 | 0.00 | 0.00 | 78 | 1027.4 |
| 20260509093720 | 53 | 177 | 0.0 | 0.0 | 0.00 | 0.00 | 0.00 | 78 | 1027.4 |
| 20260509093217 | 53 | 178 | 0.0 | 0.0 | 0.00 | 0.00 | 0.00 | 77 | 1027.4 |
| 20260509092715 | 53 | 178 | 0.0 | 0.0 | 0.00 | 0.00 | 0.00 | 77 | 1027.4 |
| 20260509092213 | 53 | 177 | 0.0 | 0.0 | 0.00 | 0.00 | 0.00 | 77 | 1027.4 |
| 20260509091711 | 53 | 179 | 0.0 | 0.0 | 0.00 | 0.00 | 0.00 | 77 | 1027.5 |
| 20260509091206 | 53 | 179 | 0.0 | 0.0 | 0.00 | 0.00 | 0.00 | 77 | 1027.7 |
| 20260509090704 | 53 | 180 | 0.0 | 0.0 | 0.00 | 0.00 | 0.00 | 77 | 1027.6 |
| 20260509090201 | 53 | 143 | 0.0 | 0.0 | 0.00 | 0.00 | 0.00 | 77 | 1027.7 |
| 20260509085659 | 53 | 178 | 0.0 | 0.0 | 0.00 | 0.00 | 0.00 | 77 | 1027.5 |
| 20260509085155 | 53 | 181 | 0.0 | 0.0 | 0.00 | 0.00 | 0.00 | 77 | 1027.6 |
| 20260509084652 | 53 | 178 | 0.0 | 0.0 | 0.00 | 0.00 | 0.00 | 77 | 1027.6 |
| 20260509084149 | 53 | 171 | 0.0 | 0.0 | 0.00 | 0.00 | 0.00 | 77 | 1027.8 |
| 20260509083647 | 53 | 174 | 0.0 | 0.0 | 0.00 | 0.00 | 0.00 | 76 | 1027.8 |
| 20260509083143 | 53 | 176 | 0.0 | 0.0 | 0.00 | 0.00 | 0.00 | 76 | 1027.6 |
| 20260509082640 | 53 | 139 | 0.0 | 0.0 | 0.00 | 0.00 | 0.00 | 75 | 1027.8 |
| 20260509082137 | 54 | 146 | 0.0 | 0.0 | 0.00 | 0.00 | 0.00 | 75 | 1027.8 |
| 20260509081633 | 54 | 178 | 0.0 | 0.0 | 0.00 | 0.00 | 0.00 | 75 | 1027.7 |
| 20260509081131 | 54 | 136 | 0.0 | 0.0 | 0.00 | 0.00 | 0.00 | 75 | 1027.7 |
| 20260509080629 | 54 | 170 | 0.0 | 0.0 | 0.00 | 0.00 | 0.00 | 75 | 1027.7 |
| 20260509080127 | 54 | 169 | 0.0 | 0.0 | 0.00 | 0.00 | 0.00 | 75 | 1027.7 |
| 20260509075624 | 54 | 154 | 0.0 | 0.0 | 0.00 | 0.00 | 0.00 | 74 | 1027.8 |
| 20260509075122 | 55 | 148 | 0.0 | 0.0 | 0.00 | 0.00 | 0.00 | 74 | 1027.8 |
| 20260509074619 | 55 | 145 | 0.0 | 0.0 | 0.00 | 0.00 | 0.00 | 74 | 1027.7 |
| 20260509074115 | 55 | 139 | 0.0 | 0.0 | 0.00 | 0.00 | 0.00 | 74 | 1027.6 |
| 20260509073612 | 55 | 111 | 0.0 | 0.0 | 0.00 | 0.00 | 0.00 | 74 | 1027.6 |
| 20260509073108 | 55 | 172 | 0.0 | 0.0 | 0.00 | 0.00 | 0.00 | 74 | 1027.6 |
| 20260509072605 | 55 | 156 | 0.0 | 0.0 | 0.00 | 0.00 | 0.00 | 74 | 1027.6 |
| 20260509072102 | 55 | 184 | 0.0 | 0.0 | 0.00 | 0.00 | 0.00 | 74 | 1027.7 |
| 20260509071558 | 55 | 160 | 0.0 | 0.0 | 0.00 | 0.00 | 0.00 | 73 | 1027.6 |
| 20260509071056 | 55 | 164 | 0.0 | 0.0 | 0.00 | 0.00 | 0.00 | 74 | 1027.5 |
| 20260509070553 | 55 | 163 | 0.0 | 0.0 | 0.00 | 0.00 | 0.00 | 73 | 1027.7 |
| 20260509070049 | 54 | 185 | 0.0 | 0.0 | 0.00 | 0.00 | 0.00 | 73 | 1027.6 |
| 20260509065545 | 54 | 130 | 0.0 | 0.0 | 0.00 | 0.00 | 0.00 | 74 | 1027.5 |
| 20260509065041 | 54 | 154 | 0.0 | 0.0 | 0.00 | 0.00 | 0.00 | 74 | 1027.3 |
| 20260509064539 | 54 | 166 | 0.0 | 0.0 | 0.00 | 0.00 | 0.00 | 74 | 1027.5 |
| 20260509064037 | 54 | 176 | 0.0 | 0.0 | 0.00 | 0.00 | 0.00 | 74 | 1027.6 |
| 20260509063532 | 54 | 145 | 0.0 | 0.0 | 0.00 | 0.00 | 0.00 | 74 | 1027.5 |
| 20260509063030 | 54 | 158 | 0.0 | 0.0 | 0.00 | 0.00 | 0.00 | 74 | 1027.5 |
| 20260509062526 | 54 | 154 | 0.0 | 0.0 | 0.00 | 0.00 | 0.00 | 74 | 1027.4 |
| 20260509062024 | 54 | 161 | 0.0 | 0.0 | 0.00 | 0.00 | 0.00 | 74 | 1027.5 |
| 20260509061521 | 53 | 160 | 0.0 | 0.0 | 0.00 | 0.00 | 0.00 | 74 | 1027.3 |
| 20260509061018 | 53 | 131 | 0.0 | 0.0 | 0.00 | 0.00 | 0.00 | 74 | 1027.5 |
| 20260509060515 | 53 | 140 | 0.0 | 0.0 | 0.00 | 0.00 | 0.00 | 74 | 1027.5 |